Location: Bouchavesnes-Bergen
(49.9859°N, 2.9203°E)
Time: 10:30:02
(UTC+00:00)

Cosmos 1709 Rocket - Pass Details

Date: 09 March 2021
Orbit: 949 x 1001 km, 82.9° (Epoch: 12 April)

Event Time Altitude Azimuth Distance (km) Brightness Sun altitude
Rises 03:27:26 0° 351° (N) 3,732 7.3 -26.9°
Reaches altitude 10° 03:29:59 10° 353° (N) 2,782 6.6 -26.6°
Maximum altitude 03:36:24 74° 79° (E) 1,044 4.2 -25.6°
Drops below altitude 10° 03:42:45 10° 164° (SSE) 2,763 6.3 -24.7°
Sets 03:45:17 0° 167° (SSE) 3,705 6.9 -24.3°
